| time (UTC) | temp C | wind direction | speed KPH | gust KPH | rain 1hr cm | rain 24hr cm | rain mn cm | humidity % | barometer mb |
| 20260504173659 | 26 | 258 | 8.0 | 16.1 | 0.00 | 0.00 | 0.00 | 33 | 1036.5 |
| 20260504173156 | 26 | 276 | 17.7 | 24.1 | 0.00 | 0.00 | 0.00 | 32 | 1036.4 |
| 20260504172652 | 26 | 299 | 14.5 | 22.5 | 0.00 | 0.00 | 0.00 | 32 | 1036.5 |
| 20260504172149 | 26 | 264 | 9.7 | 25.7 | 0.00 | 0.00 | 0.00 | 33 | 1036.5 |
| 20260504171645 | 26 | 268 | 16.1 | 24.1 | 0.00 | 0.00 | 0.00 | 31 | 1036.3 |
| 20260504171143 | 26 | 282 | 14.5 | 20.9 | 0.00 | 0.00 | 0.00 | 34 | 1036.4 |
| 20260504170639 | 26 | 175 | 4.8 | 20.9 | 0.00 | 0.00 | 0.00 | 33 | 1036.5 |
| 20260504170137 | 26 | 230 | 8.0 | 9.7 | 0.00 | 0.00 | 0.00 | 33 | 1036.1 |
| 20260504151022 | 22 | 243 | 3.2 | 12.9 | 0.00 | 0.00 | 0.00 | 49 | 1037.0 |
| 20260504150519 | 22 | 256 | 3.2 | 8.0 | 0.00 | 0.00 | 0.00 | 49 | 1037.1 |
| 20260504140945 | 19 | 213 | 1.6 | 3.2 | 0.00 | 0.00 | 0.00 | 53 | 1037.5 |
| 20260504140442 | 20 | 282 | 0.0 | 0.0 | 0.00 | 0.00 | 0.00 | 55 | 1037.5 |
| 20260504130406 | 14 | 238 | 1.6 | 3.2 | 0.00 | 0.00 | 0.00 | 67 | 1038.0 |
| 20260504110253 | 8 | 298 | 0.0 | 0.0 | 0.00 | 0.00 | 0.00 | 82 | 1038.3 |
| 20260504100211 | 8 | 299 | 0.0 | 0.0 | 0.00 | 0.00 | 0.00 | 83 | 1039.1 |
| 20260504090134 | 8 | 312 | 0.0 | 0.0 | 0.00 | 0.00 | 0.00 | 83 | 1039.6 |
| 20260504081604 | 8 | 304 | 0.0 | 0.0 | 0.00 | 0.00 | 0.00 | 76 | 1040.2 |
| 20260504081100 | 8 | 304 | 0.0 | 0.0 | 0.00 | 0.00 | 0.00 | 78 | 1040.1 |
| 20260504080557 | 8 | 299 | 0.0 | 0.0 | 0.00 | 0.00 | 0.00 | 78 | 1040.3 |
| 20260504050404 | 8 | 298 | 0.0 | 0.0 | 0.00 | 0.00 | 0.00 | 79 | 1042.2 |
| 20260504045901 | 8 | 301 | 0.0 | 0.0 | 0.00 | 0.00 | 0.00 | 75 | 1042.2 |
| 20260504045356 | 9 | 301 | 0.0 | 0.0 | 0.00 | 0.00 | 0.00 | 76 | 1042.5 |
| 20260504044853 | 9 | 298 | 0.0 | 0.0 | 0.00 | 0.00 | 0.00 | 75 | 1042.5 |
| 20260504044350 | 9 | 301 | 0.0 | 0.0 | 0.00 | 0.00 | 0.00 | 75 | 1042.5 |
| 20260504043848 | 10 | 301 | 0.0 | 0.0 | 0.00 | 0.00 | 0.00 | 76 | 1042.4 |
| 20260504043344 | 10 | 296 | 0.0 | 0.0 | 0.00 | 0.00 | 0.00 | 70 | 1042.8 |
| 20260504042842 | 10 | 297 | 0.0 | 0.0 | 0.00 | 0.00 | 0.00 | 67 | 1042.6 |
| 20260504042338 | 10 | 297 | 0.0 | 0.0 | 0.00 | 0.00 | 0.00 | 72 | 1042.7 |
| 20260504041834 | 10 | 311 | 0.0 | 0.0 | 0.00 | 0.00 | 0.00 | 74 | 1042.6 |
| 20260504041331 | 10 | 303 | 0.0 | 0.0 | 0.00 | 0.00 | 0.00 | 72 | 1042.8 |
| 20260504040827 | 10 | 303 | 0.0 | 0.0 | 0.00 | 0.00 | 0.00 | 71 | 1042.8 |
| 20260504040325 | 11 | 308 | 0.0 | 0.0 | 0.00 | 0.00 | 0.00 | 66 | 1042.8 |
| 20260504035820 | 11 | 303 | 0.0 | 0.0 | 0.00 | 0.00 | 0.00 | 63 | 1043.1 |
| 20260504035318 | 11 | 305 | 0.0 | 0.0 | 0.00 | 0.00 | 0.00 | 61 | 1043.0 |
| 20260504034815 | 11 | 310 | 0.0 | 0.0 | 0.00 | 0.00 | 0.00 | 64 | 1043.1 |
| 20260504034313 | 11 | 309 | 0.0 | 0.0 | 0.00 | 0.00 | 0.00 | 60 | 1043.1 |
| 20260504033809 | 11 | 311 | 0.0 | 0.0 | 0.00 | 0.00 | 0.00 | 63 | 1043.2 |
| 20260504033307 | 11 | 306 | 0.0 | 0.0 | 0.00 | 0.00 | 0.00 | 63 | 1043.3 |
| 20260504032804 | 11 | 315 | 0.0 | 0.0 | 0.00 | 0.00 | 0.00 | 63 | 1043.6 |
| 20260504032301 | 11 | 303 | 0.0 | 0.0 | 0.00 | 0.00 | 0.00 | 68 | 1043.5 |
| 20260504031757 | 11 | 302 | 0.0 | 0.0 | 0.00 | 0.00 | 0.00 | 67 | 1043.4 |
| 20260504031255 | 11 | 304 | 0.0 | 0.0 | 0.00 | 0.00 | 0.00 | 68 | 1043.5 |
| 20260504030751 | 11 | 305 | 0.0 | 0.0 | 0.00 | 0.00 | 0.00 | 68 | 1043.5 |
| 20260504030248 | 11 | 303 | 0.0 | 0.0 | 0.00 | 0.00 | 0.00 | 68 | 1043.6 |
| 20260504025744 | 11 | 303 | 0.0 | 0.0 | 0.00 | 0.00 | 0.00 | 63 | 1043.6 |
| 20260504025242 | 12 | 303 | 0.0 | 0.0 | 0.00 | 0.00 | 0.00 | 62 | 1043.8 |
| 20260504024738 | 12 | 306 | 0.0 | 0.0 | 0.00 | 0.00 | 0.00 | 57 | 1043.6 |
| 20260504024235 | 12 | 303 | 0.0 | 0.0 | 0.00 | 0.00 | 0.00 | 55 | 1043.5 |
| 20260504023732 | 12 | 303 | 0.0 | 0.0 | 0.00 | 0.00 | 0.00 | 57 | 1043.6 |
| 20260504023228 | 12 | 316 | 0.0 | 0.0 | 0.00 | 0.00 | 0.00 | 55 | 1043.5 |
| 20260504022724 | 12 | 301 | 0.0 | 0.0 | 0.00 | 0.00 | 0.00 | 61 | 1043.6 |
| 20260504022220 | 12 | 303 | 0.0 | 0.0 | 0.00 | 0.00 | 0.00 | 60 | 1043.6 |
| 20260504021718 | 12 | 303 | 0.0 | 0.0 | 0.00 | 0.00 | 0.00 | 54 | 1043.5 |
| 20260504021215 | 12 | 300 | 0.0 | 0.0 | 0.00 | 0.00 | 0.00 | 57 | 1043.5 |
| 20260504020712 | 12 | 303 | 0.0 | 0.0 | 0.00 | 0.00 | 0.00 | 55 | 1043.4 |
| 20260504020208 | 12 | 303 | 0.0 | 0.0 | 0.00 | 0.00 | 0.00 | 58 | 1043.5 |
| 20260504015705 | 13 | 306 | 0.0 | 0.0 | 0.00 | 0.00 | 0.00 | 57 | 1043.5 |
| 20260504015201 | 13 | 300 | 0.0 | 0.0 | 0.00 | 0.00 | 0.00 | 51 | 1043.4 |
| 20260504014656 | 14 | 300 | 0.0 | 0.0 | 0.00 | 0.00 | 0.00 | 49 | 1043.4 |
| 20260504014154 | 14 | 303 | 0.0 | 0.0 | 0.00 | 0.00 | 0.00 | 45 | 1043.3 |
| 20260504013652 | 15 | 300 | 0.0 | 0.0 | 0.00 | 0.00 | 0.00 | 47 | 1043.4 |
| 20260504013148 | 15 | 300 | 0.0 | 0.0 | 0.00 | 0.00 | 0.00 | 46 | 1043.4 |
| 20260504012645 | 15 | 301 | 0.0 | 0.0 | 0.00 | 0.00 | 0.00 | 46 | 1043.4 |
| 20260504012143 | 16 | 300 | 0.0 | 0.0 | 0.00 | 0.00 | 0.00 | 42 | 1043.4 |
| 20260504011640 | 16 | 297 | 0.0 | 0.0 | 0.00 | 0.00 | 0.00 | 40 | 1043.5 |
| 20260504011136 | 17 | 296 | 0.0 | 0.0 | 0.00 | 0.00 | 0.00 | 39 | 1043.4 |
| 20260504010632 | 17 | 297 | 0.0 | 0.0 | 0.00 | 0.00 | 0.00 | 36 | 1043.2 |
| 20260504010128 | 18 | 293 | 0.0 | 0.0 | 0.00 | 0.00 | 0.00 | 35 | 1043.3 |
| 20260504005625 | 19 | 286 | 0.0 | 3.2 | 0.00 | 0.00 | 0.00 | 38 | 1043.1 |
| 20260504005122 | 20 | 283 | 0.0 | 0.0 | 0.00 | 0.00 | 0.00 | 34 | 1043.4 |
| 20260504004620 | 20 | 291 | 0.0 | 1.6 | 0.00 | 0.00 | 0.00 | 32 | 1043.4 |
| 20260504004117 | 21 | 280 | 4.8 | 4.8 | 0.00 | 0.00 | 0.00 | 29 | 1043.2 |
| 20260504003613 | 21 | 282 | 3.2 | 9.7 | 0.00 | 0.00 | 0.00 | 28 | 1043.2 |
| 20260504003110 | 22 | 282 | 4.8 | 8.0 | 0.00 | 0.00 | 0.00 | 27 | 1043.3 |
| 20260504002607 | 22 | 276 | 4.8 | 9.7 | 0.00 | 0.00 | 0.00 | 26 | 1043.4 |
| 20260504002104 | 22 | 253 | 4.8 | 9.7 | 0.00 | 0.00 | 0.00 | 25 | 1043.4 |
| 20260504001602 | 22 | 265 | 4.8 | 8.0 | 0.00 | 0.00 | 0.00 | 26 | 1043.4 |
| 20260504001057 | 22 | 265 | 4.8 | 12.9 | 0.00 | 0.00 | 0.00 | 26 | 1043.5 |
| 20260504000555 | 22 | 296 | 4.8 | 9.7 | 0.00 | 0.00 | 0.00 | 25 | 1043.4 |
| 20260504000053 | 23 | 300 | 3.2 | 8.0 | 0.00 | 0.00 | 0.00 | 26 | 1043.4 |
| 20260503235551 | 23 | 290 | 4.8 | 11.3 | 0.00 | 0.00 | 0.00 | 24 | 1043.5 |
| 20260503235047 | 23 | 285 | 4.8 | 8.0 | 0.00 | 0.00 | 0.00 | 23 | 1043.4 |
| 20260503234545 | 23 | 306 | 6.4 | 11.3 | 0.00 | 0.00 | 0.00 | 24 | 1043.5 |
| 20260503234043 | 23 | 265 | 9.7 | 12.9 | 0.00 | 0.00 | 0.00 | 23 | 1043.5 |
| 20260503233539 | 23 | 275 | 6.4 | 9.7 | 0.00 | 0.00 | 0.00 | 24 | 1043.4 |
| 20260503233035 | 23 | 265 | 8.0 | 9.7 | 0.00 | 0.00 | 0.00 | 24 | 1043.6 |
| 20260503232533 | 23 | 261 | 4.8 | 9.7 | 0.00 | 0.00 | 0.00 | 23 | 1043.5 |
| 20260503232030 | 23 | 273 | 8.0 | 16.1 | 0.00 | 0.00 | 0.00 | 23 | 1043.6 |
| 20260503231528 | 23 | 340 | 3.2 | 9.7 | 0.00 | 0.00 | 0.00 | 23 | 1043.6 |
| 20260503231024 | 23 | 291 | 4.8 | 9.7 | 0.00 | 0.00 | 0.00 | 25 | 1043.6 |
| 20260503230521 | 23 | 280 | 4.8 | 12.9 | 0.00 | 0.00 | 0.00 | 25 | 1043.6 |
| 20260503230018 | 23 | 269 | 6.4 | 11.3 | 0.00 | 0.00 | 0.00 | 23 | 1043.6 |
| 20260503225514 | 23 | 242 | 4.8 | 11.3 | 0.00 | 0.00 | 0.00 | 24 | 1043.6 |
| 20260503225009 | 23 | 268 | 6.4 | 9.7 | 0.00 | 0.00 | 0.00 | 23 | 1043.6 |
| 20260503224507 | 23 | 287 | 8.0 | 12.9 | 0.00 | 0.00 | 0.00 | 25 | 1043.9 |
| 20260503224000 | 23 | 265 | 4.8 | 11.3 | 0.00 | 0.00 | 0.00 | 25 | 1043.8 |
| 20260503223457 | 23 | 345 | 3.2 | 12.9 | 0.00 | 0.00 | 0.00 | 25 | 1043.9 |
| 20260503222952 | 23 | 304 | 8.0 | 12.9 | 0.00 | 0.00 | 0.00 | 24 | 1043.6 |
| 20260503222451 | 23 | 240 | 6.4 | 11.3 | 0.00 | 0.00 | 0.00 | 26 | 1043.6 |
| 20260503221949 | 23 | 214 | 8.0 | 12.9 | 0.00 | 0.00 | 0.00 | 25 | 1043.6 |
| 20260503221447 | 23 | 259 | 8.0 | 16.1 | 0.00 | 0.00 | 0.00 | 26 | 1043.9 |
| 20260503220944 | 23 | 314 | 3.2 | 11.3 | 0.00 | 0.00 | 0.00 | 27 | 1043.8 |
| 20260503220440 | 22 | 278 | 9.7 | 12.9 | 0.00 | 0.00 | 0.00 | 25 | 1043.9 |
| 20260503215937 | 22 | 269 | 9.7 | 22.5 | 0.00 | 0.00 | 0.00 | 27 | 1043.9 |
| 20260503215434 | 23 | 41 | 4.8 | 8.0 | 0.00 | 0.00 | 0.00 | 26 | 1043.8 |
| 20260503214932 | 23 | 315 | 3.2 | 8.0 | 0.00 | 0.00 | 0.00 | 28 | 1043.9 |
| 20260503214429 | 23 | 248 | 4.8 | 9.7 | 0.00 | 0.00 | 0.00 | 29 | 1043.8 |
| 20260503213926 | 23 | 269 | 4.8 | 9.7 | 0.00 | 0.00 | 0.00 | 29 | 1044.0 |
| 20260503213425 | 23 | 313 | 11.3 | 14.5 | 0.00 | 0.00 | 0.00 | 26 | 1043.8 |
| 20260503212920 | 23 | 309 | 3.2 | 11.3 | 0.00 | 0.00 | 0.00 | 27 | 1043.9 |
| 20260503212418 | 23 | 257 | 3.2 | 11.3 | 0.00 | 0.00 | 0.00 | 27 | 1043.9 |
| 20260503211915 | 23 | 289 | 8.0 | 14.5 | 0.00 | 0.00 | 0.00 | 28 | 1043.8 |
| 20260503211412 | 23 | 283 | 8.0 | 20.9 | 0.00 | 0.00 | 0.00 | 27 | 1043.6 |
| 20260503210906 | 23 | 249 | 12.9 | 24.1 | 0.00 | 0.00 | 0.00 | 30 | 1043.6 |
| 20260503210404 | 23 | 329 | 9.7 | 22.5 | 0.00 | 0.00 | 0.00 | 30 | 1043.9 |
| 20260503205859 | 24 | 261 | 3.2 | 9.7 | 0.00 | 0.00 | 0.00 | 28 | 1044.0 |
| 20260503205356 | 24 | 271 | 9.7 | 12.9 | 0.00 | 0.00 | 0.00 | 28 | 1044.0 |
| 20260503204853 | 24 | 276 | 8.0 | 14.5 | 0.00 | 0.00 | 0.00 | 26 | 1044.0 |
| 20260503204350 | 24 | 258 | 4.8 | 11.3 | 0.00 | 0.00 | 0.00 | 29 | 1044.1 |
| 20260503203847 | 23 | 35 | 6.4 | 12.9 | 0.00 | 0.00 | 0.00 | 27 | 1044.3 |
| 20260503203344 | 23 | 281 | 11.3 | 22.5 | 0.00 | 0.00 | 0.00 | 26 | 1044.3 |
| 20260503202841 | 24 | 296 | 19.3 | 24.1 | 0.00 | 0.00 | 0.00 | 26 | 1044.3 |
| 20260503202339 | 24 | 267 | 3.2 | 9.7 | 0.00 | 0.00 | 0.00 | 26 | 1044.2 |
| 20260503201838 | 23 | 232 | 3.2 | 11.3 | 0.00 | 0.00 | 0.00 | 29 | 1044.4 |
| 20260503201334 | 23 | 250 | 6.4 | 12.9 | 0.00 | 0.00 | 0.00 | 29 | 1044.4 |
| 20260503200832 | 23 | 271 | 9.7 | 17.7 | 0.00 | 0.00 | 0.00 | 29 | 1044.2 |
| 20260503200327 | 23 | 281 | 8.0 | 24.1 | 0.00 | 0.00 | 0.00 | 29 | 1044.3 |
| 20260503195825 | 23 | 355 | 4.8 | 8.0 | 0.00 | 0.00 | 0.00 | 29 | 1044.5 |
| 20260503195321 | 23 | 264 | 9.7 | 14.5 | 0.00 | 0.00 | 0.00 | 29 | 1044.7 |
| 20260503194819 | 23 | 290 | 6.4 | 14.5 | 0.00 | 0.00 | 0.00 | 29 | 1044.4 |
| 20260503194314 | 23 | 3 | 11.3 | 14.5 | 0.00 | 0.00 | 0.00 | 28 | 1044.6 |
| 20260503193811 | 23 | 264 | 14.5 | 24.1 | 0.00 | 0.00 | 0.00 | 30 | 1044.5 |
| 20260503193307 | 23 | 280 | 6.4 | 14.5 | 0.00 | 0.00 | 0.00 | 31 | 1044.5 |
| 20260503192803 | 23 | 269 | 8.0 | 14.5 | 0.00 | 0.00 | 0.00 | 30 | 1044.7 |
| 20260503192258 | 23 | 344 | 9.7 | 25.7 | 0.00 | 0.00 | 0.00 | 30 | 1044.6 |
| 20260503191755 | 23 | 255 | 6.4 | 16.1 | 0.00 | 0.00 | 0.00 | 29 | 1044.5 |
| 20260503191252 | 23 | 143 | 4.8 | 9.7 | 0.00 | 0.00 | 0.00 | 32 | 1044.4 |
| 20260503190749 | 23 | 284 | 16.1 | 22.5 | 0.00 | 0.00 | 0.00 | 29 | 1044.5 |
| 20260503190245 | 23 | 264 | 11.3 | 24.1 | 0.00 | 0.00 | 0.00 | 29 | 1044.6 |
| 20260503185743 | 23 | 253 | 4.8 | 16.1 | 0.00 | 0.00 | 0.00 | 30 | 1044.7 |
| 20260503185238 | 22 | 258 | 4.8 | 12.9 | 0.00 | 0.00 | 0.00 | 31 | 1044.6 |
| 20260503184733 | 22 | 286 | 9.7 | 16.1 | 0.00 | 0.00 | 0.00 | 31 | 1044.6 |
| 20260503184230 | 22 | 309 | 8.0 | 11.3 | 0.00 | 0.00 | 0.00 | 34 | 1044.6 |
| 20260503183725 | 22 | 262 | 1.6 | 14.5 | 0.00 | 0.00 | 0.00 | 32 | 1044.6 |
| 20260503183223 | 23 | 278 | 9.7 | 20.9 | 0.00 | 0.00 | 0.00 | 31 | 1044.8 |
| 20260503182721 | 23 | 351 | 9.7 | 14.5 | 0.00 | 0.00 | 0.00 | 31 | 1044.5 |
| 20260503182219 | 23 | 284 | 4.8 | 14.5 | 0.00 | 0.00 | 0.00 | 31 | 1044.6 |
| 20260503181715 | 23 | 261 | 14.5 | 17.7 | 0.00 | 0.00 | 0.00 | 30 | 1044.9 |
| 20260503181212 | 23 | 285 | 11.3 | 16.1 | 0.00 | 0.00 | 0.00 | 30 | 1044.8 |
| 20260503180709 | 22 | 312 | 11.3 | 20.9 | 0.00 | 0.00 | 0.00 | 30 | 1044.9 |
| 20260503180208 | 22 | 267 | 6.4 | 14.5 | 0.00 | 0.00 | 0.00 | 31 | 1045.1 |
| 20260503175704 | 22 | 259 | 12.9 | 25.7 | 0.00 | 0.00 | 0.00 | 32 | 1044.8 |
| 20260503175202 | 22 | 310 | 11.3 | 25.7 | 0.00 | 0.00 | 0.00 | 31 | 1044.8 |
| 20260503174657 | 22 | 260 | 20.9 | 25.7 | 0.00 | 0.00 | 0.00 | 30 | 1044.9 |
| 20260503174155 | 22 | 300 | 12.9 | 24.1 | 0.00 | 0.00 | 0.00 | 32 | 1044.9 |